Theta_e
331 330 330 329 330 331 330 331 331 334 328 325 324 323 324 324 321 320 320 319 319 318 317 317 316 316 316 316 316 318 319 316 314 313 311 306 303 302
330 329 329 329 329 330 330 330 330 330 333 328 326 325 323 322 321 321 320 320 319 318 317 317 317 316 316 316 317 318 318 316 314 313 310 304 300 299
329 329 329 329 329 328 329 328 328 328 330 329 327 326 322 321 321 320 320 320 319 319 318 316 317 317 316 317 318 318 317 316 314 311 307 299 298 296
329 329 329 329 329 328 327 326 326 326 326 328 321 316 317 317 318 319 318 319 319 319 319 317 317 317 317 318 319 318 316 315 311 308 299 296 295 295
329 328 329 329 328 328 327 326 326 326 326 326 320 314 309 311 312 313 315 316 318 319 319 318 317 316 317 318 318 317 315 311 305 300 297 294 293 293
327 328 329 329 328 327 327 326 326 326 325 324 315 309 308 308 308 308 307 309 311 314 317 318 317 316 316 317 317 315 312 306 300 297 293 291 291 290
324 327 328 329 328 328 327 326 326 326 326 324 311 304 303 301 303 303 302 301 301 303 306 309 310 311 312 316 313 312 306 299 296 293 290 289 287 287
317 324 326 326 327 328 327 326 326 326 324 319 311 310 305 307 304 301 297 294 294 297 297 295 299 298 299 299 299 299 295 293 291 289 287 286 284 283
311 317 323 325 326 327 326 326 326 326 325 321 313 313 309 310 306 299 298 298 299 294 294 291 291 291 292 292 290 290 290 289 287 285 284 283 283 284
306 311 318 323 324 325 325 325 324 325 324 323 321 319 318 313 314 310 301 296 295 294 294 289 288 288 288 289 289 287 286 286 285 284 283 282 283 283
302 306 311 316 321 324 323 324 324 324 324 323 322 321 320 318 315 303 295 294 292 289 292 289 286 285 285 286 285 284 284 284 283 283 283 283 283 282
297 303 309 312 313 321 321 319 318 322 322 321 319 317 315 313 311 314 302 296 293 289 290 291 284 284 283 284 284 283 283 283 283 283 283 282 282 283
293 296 300 306 309 311 315 319 319 321 321 320 318 313 310 308 303 301 302 299 295 292 290 291 285 284 283 282 283 283 282 282 282 282 282 282 282 283
291 293 296 299 304 307 309 310 312 319 317 314 307 303 303 301 299 298 298 297 297 296 293 291 286 286 282 282 282 282 282 282 282 282 283 283 283 282
290 291 294 296 298 301 305 308 305 307 309 302 299 297 298 298 296 294 294 294 295 294 294 289 289 286 285 282 282 282 282 282 282 283 283 283 282 283
288 289 290 291 293 296 297 298 300 302 302 297 294 292 291 291 291 292 290 290 290 285 286 287 288 287 284 283 282 281 281 282 282 282 281 281 282 282
285 286 287 287 288 289 290 291 292 293 295 293 290 286 286 286 286 287 287 287 283 281 281 283 284 284 284 282 281 281 282 282 282 281 281 281 281 282
285 287 287 285 285 285 285 285 286 288 288 288 285 284 283 283 282 283 284 283 281 281 281 281 282 281 281 281 282 282 282 281 281 281 281 282 282 282
285 285 284 284 283 283 283 283 282 283 284 284 283 282 282 281 282 282 281 281 281 281 281 281 282 284 284 282 280 282 282 281 281 281 282 283 283 283
283 283 282 282 281 281 281 281 281 281 281 281 281 281 281 281 281 281 282 282 281 282 282 283 285 285 284 283 281 279 282 281 281 282 281 282 283 282
281 281 281 280 280 279 279 280 280 279 280 280 280 280 280 280 280 280 281 281 282 283 284 284 282 284 282 280 280 280 279 281 282 282 282 282 282 282
280 280 279 279 279 279 278 278 278 278 278 278 278 278 279 279 279 280 280 281 281 280 279 279 280 281 282 281 281 279 278 277 278 279 280 281 282 284
278 278 278 279 278 278 278 278 277 277 277 277 277 278 278 279 279 279 279 278 278 279 279 280 280 280 280 280 280 279 278 279 278 278 277 276 277 278
Wind_Speed
35 36 34 32 32 28 27 26 19 11 11 17 13 29 32 31 36 39 38 36 38 38 40 38 36 33 32 30 30 27 31 31 28 26 24 20 17 17
32 33 33 32 31 30 30 27 26 25 12 20 23 16 28 31 32 39 45 41 37 41 41 42 40 38 35 33 33 34 38 35 29 27 27 20 20 19
30 32 34 33 31 31 30 28 28 26 14 12 14 21 19 28 34 35 36 43 43 42 44 44 43 41 39 36 38 40 40 36 33 30 26 21 20 19
30 30 31 32 33 30 31 30 30 29 24 19 18 16 19 27 32 35 38 42 43 44 44 46 46 45 42 38 39 43 41 37 35 32 27 24 20 19
28 30 32 31 31 29 32 30 32 28 27 22 11 12 17 23 27 30 35 38 43 46 43 44 47 47 45 43 42 45 44 41 37 34 29 27 24 22
31 31 33 31 33 32 32 32 30 26 24 23 15 10 16 18 24 26 25 31 34 39 44 45 49 49 48 46 47 49 46 43 39 34 33 30 27 24
22 33 35 36 39 38 34 32 30 27 23 21 11 10 12 12 23 21 17 25 22 25 31 38 43 48 51 53 53 52 48 44 41 38 33 32 30 27
20 24 27 32 35 40 43 39 35 28 24 20 17 15 19 23 21 24 20 11 4 22 26 25 37 40 47 48 51 50 46 43 39 35 34 32 29 27
20 21 23 29 32 37 43 44 39 35 34 32 27 25 21 33 29 27 29 24 17 24 28 15 23 30 39 40 39 42 39 36 32 30 31 31 28 26
19 22 23 29 32 34 40 43 40 38 40 37 33 32 29 28 36 37 32 24 14 24 29 8 21 14 28 31 29 29 29 29 29 29 28 28 27 25
25 24 23 27 32 38 37 35 39 41 38 39 34 30 32 31 31 28 28 26 9 14 33 16 18 16 17 27 27 25 26 27 27 28 28 27 25 24
27 26 21 23 30 37 38 35 34 40 43 35 35 34 29 31 35 34 38 30 15 8 29 22 28 19 8 17 29 28 26 25 25 25 27 25 22 20
23 24 25 20 23 33 36 38 40 42 41 36 34 31 30 30 35 35 33 33 30 9 29 34 23 24 11 11 23 29 32 28 25 24 24 22 22 20
27 28 29 25 21 22 28 31 34 39 34 28 27 26 28 32 34 36 29 31 28 21 21 41 17 31 14 11 15 28 30 30 28 25 23 22 21 23
22 25 23 19 19 19 22 24 28 26 27 25 23 22 26 28 30 30 26 26 17 15 19 41 25 32 28 15 17 29 30 28 25 26 23 21 19 19
19 17 14 11 11 11 11 14 20 23 24 20 23 26 26 27 29 30 28 26 24 21 25 24 24 33 23 26 35 30 24 15 28 24 20 16 16 17
17 13 10 8 5 2 4 9 11 15 22 21 24 24 25 27 25 28 30 27 19 19 22 22 24 23 23 32 27 27 26 18 25 23 17 16 15 15
14 12 9 5 4 3 2 2 5 11 13 18 20 22 25 25 26 24 24 25 26 23 25 27 32 33 30 23 21 26 20 20 21 18 15 15 14 13
12 10 7 6 4 2 3 6 4 5 15 18 16 19 23 24 25 23 23 25 23 25 23 24 25 23 12 9 13 17 20 19 19 17 15 13 12 11
10 9 5 3 3 1 5 8 9 11 13 17 15 19 23 25 24 23 23 25 26 26 25 18 15 17 20 12 15 13 17 19 18 16 13 10 9 10
10 8 5 2 1 2 8 13 14 14 16 19 17 19 21 27 24 23 24 26 28 25 22 20 14 20 22 28 21 18 14 15 13 11 11 9 8 8
11 9 7 5 5 5 10 17 21 20 18 21 20 20 19 27 29 28 27 27 24 24 25 23 19 19 20 22 21 20 15 12 12 11 10 8 3 5
13 9 9 8 8 8 10 14 19 21 22 25 27 24 22 25 28 28 27 29 28 27 25 23 20 20 21 21 20 17 16 13 11 10 6 4 5 5
Wind_Direction
224 221 218 223 227 229 221 227 218 211 215 216 199 216 218 219 218 221 221 223 220 220 219 218 220 222 226 223 222 221 202 196 197 214 214 196 184 171
225 226 221 223 221 222 226 224 223 228 242 209 216 210 212 215 221 222 226 220 222 221 221 218 219 222 223 225 221 217 201 202 214 224 219 201 174 171
226 225 220 219 219 220 222 216 220 220 228 219 207 206 206 214 218 221 221 225 225 223 221 220 221 222 225 223 224 213 206 214 219 221 215 178 172 170
229 225 223 217 220 217 215 216 217 216 216 222 200 204 213 217 225 224 222 227 221 225 223 222 222 222 224 222 218 211 210 218 217 214 183 170 170 171
235 230 227 220 219 218 217 217 216 215 212 215 181 193 209 219 217 221 221 225 227 226 224 224 223 221 221 220 216 213 212 213 204 190 180 173 169 170
242 240 233 226 221 219 217 216 214 206 202 207 193 190 208 215 217 217 219 224 222 221 224 222 222 219 219 218 214 212 212 204 194 185 175 170 172 169
273 242 239 235 229 223 215 213 211 206 197 199 181 173 188 186 205 214 204 212 210 210 208 203 203 201 201 209 207 208 204 195 188 181 178 175 176 173
279 263 252 243 239 233 225 216 208 205 201 192 192 200 203 208 203 197 180 167 197 201 179 165 181 175 179 182 186 191 187 183 180 181 181 176 179 170
277 278 268 249 243 236 227 223 220 213 213 207 198 207 201 217 210 189 196 198 196 183 174 161 170 164 173 176 176 177 179 182 183 179 176 175 176 170
278 273 268 255 251 244 233 231 224 222 220 223 220 224 228 226 226 223 206 178 169 182 176 144 173 169 172 170 174 174 173 175 174 173 175 176 172 175
300 290 272 262 254 245 241 233 227 226 229 227 227 238 240 244 228 197 172 170 163 180 184 162 164 139 160 170 169 171 173 171 172 172 174 176 173 184
309 303 285 265 260 252 235 230 225 232 225 229 231 231 225 221 223 228 198 180 162 154 196 171 155 148 145 178 172 173 173 173 175 177 176 175 181 185
305 301 298 283 266 250 246 233 229 238 233 232 230 228 221 211 207 205 212 192 184 182 195 184 171 166 144 151 175 175 175 174 177 179 177 182 189 188
300 299 297 295 280 268 259 245 238 237 231 216 210 203 198 198 203 204 208 197 203 210 198 187 176 177 142 150 157 174 173 177 179 178 181 187 194 198
306 301 296 295 289 277 261 248 238 238 215 187 182 181 190 193 190 189 192 190 193 191 182 189 193 178 170 146 149 164 154 174 177 179 179 182 195 201
311 312 307 292 274 259 230 218 218 213 203 191 169 183 175 172 173 175 158 156 144 137 169 187 195 184 165 162 153 157 157 162 174 175 177 185 194 200
314 307 309 306 289 237 198 208 199 198 187 187 172 160 152 153 154 161 157 152 136 135 126 148 162 168 163 150 144 155 155 152 166 169 173 183 196 200
316 307 304 308 302 270 186 149 213 190 168 168 163 154 146 143 139 145 149 139 132 133 128 131 128 117 110 103 137 143 140 146 160 166 177 187 195 199
308 308 307 304 286 233 175 147 171 157 158 155 154 144 138 134 136 136 132 131 130 132 133 139 141 140 132 121 115 139 137 145 158 170 181 186 188 190
330 326 323 320 301 242 137 131 125 136 136 132 139 135 136 134 133 134 137 138 134 132 131 137 135 140 136 134 130 116 148 150 160 163 172 177 185 195
346 351 351 23 58 120 126 124 126 119 124 125 129 128 132 129 124 126 130 131 130 129 124 123 108 128 121 122 120 129 127 145 148 157 158 174 183 187
5 16 25 56 81 111 115 119 116 114 112 111 111 114 123 123 122 125 127 126 116 111 110 114 118 122 129 131 129 130 128 131 147 153 158 157 157 187
16 27 42 59 81 101 111 113 111 111 115 113 109 108 113 112 117 116 112 112 116 116 117 114 112 111 111 118 121 124 129 135 141 134 109 129 178 216